| time (UTC) | temp C | wind direction | speed KPH | gust KPH | rain 1hr cm | rain 24hr cm | rain mn cm | humidity % | barometer mb |
| 20260510183518 | 21 | 0 | 1.6 | 4.8 | 0.00 | 0.00 | 0.00 | 68 | 1013.3 |
| 20260510182518 | 21 | 135 | 3.2 | 8.0 | 0.00 | 0.00 | 0.00 | 67 | 1013.3 |
| 20260510181518 | 22 | 0.0 | 3.2 | 0.00 | 0.00 | 0.00 | 67 | 1013.2 | |
| 20260510180538 | 22 | 135 | 4.8 | 11.3 | 0.00 | 0.00 | 0.00 | 66 | 1013.2 |
| 20260510175518 | 22 | 225 | 4.8 | 16.1 | 0.00 | 0.00 | 0.00 | 66 | 1013.2 |
| 20260510174518 | 22 | 225 | 4.8 | 11.3 | 0.00 | 0.00 | 0.00 | 64 | 1013.1 |
| 20260510173517 | 22 | 158 | 3.2 | 12.9 | 0.00 | 0.00 | 0.00 | 66 | 1013.1 |
| 20260510172538 | 22 | 158 | 6.4 | 11.3 | 0.00 | 0.00 | 0.00 | 66 | 1013.2 |
| 20260510171518 | 22 | 135 | 4.8 | 11.3 | 0.00 | 0.00 | 0.00 | 67 | 1013.2 |
| 20260510170518 | 22 | 113 | 3.2 | 11.3 | 0.00 | 0.00 | 0.00 | 72 | 1013.1 |
| 20260510165538 | 22 | 135 | 3.2 | 6.4 | 0.00 | 0.00 | 0.00 | 70 | 1013.3 |
| 20260510164518 | 23 | 135 | 1.6 | 6.4 | 0.00 | 0.00 | 0.00 | 68 | 1013.4 |
| 20260510163539 | 22 | 135 | 3.2 | 12.9 | 0.00 | 0.00 | 0.00 | 67 | 1013.3 |
| 20260510162537 | 22 | 135 | 1.6 | 4.8 | 0.00 | 0.00 | 0.00 | 68 | 1013.4 |
| 20260510161518 | 22 | 113 | 4.8 | 9.7 | 0.00 | 0.00 | 0.00 | 69 | 1013.4 |
| 20260510160538 | 22 | 135 | 4.8 | 12.9 | 0.00 | 0.00 | 0.00 | 69 | 1013.4 |
| 20260510155517 | 22 | 135 | 1.6 | 6.4 | 0.00 | 0.00 | 0.00 | 70 | 1013.5 |
| 20260510154519 | 22 | 135 | 1.6 | 6.4 | 0.00 | 0.00 | 0.00 | 73 | 1013.6 |
| 20260510153537 | 22 | 68 | 1.6 | 4.8 | 0.00 | 0.00 | 0.00 | 71 | 1013.7 |
| 20260510152518 | 22 | 113 | 1.6 | 9.7 | 0.00 | 0.00 | 0.00 | 74 | 1013.8 |
| 20260510151538 | 22 | 135 | 1.6 | 4.8 | 0.00 | 0.00 | 0.00 | 73 | 1013.8 |
| 20260510150518 | 22 | 158 | 1.6 | 9.7 | 0.00 | 0.00 | 0.00 | 72 | 1013.8 |
| 20260510145518 | 22 | 135 | 1.6 | 8.0 | 0.00 | 0.00 | 0.00 | 75 | 1013.9 |
| 20260510144518 | 22 | 135 | 1.6 | 8.0 | 0.00 | 0.00 | 0.00 | 77 | 1014.0 |
| 20260510143518 | 21 | 113 | 3.2 | 8.0 | 0.00 | 0.00 | 0.00 | 80 | 1014.0 |
| 20260510142538 | 21 | 90 | 4.8 | 12.9 | 0.00 | 0.00 | 0.00 | 80 | 1014.1 |
| 20260510141518 | 21 | 90 | 4.8 | 11.3 | 0.00 | 0.00 | 0.00 | 79 | 1014.3 |
| 20260510140616 | 21 | 135 | 3.2 | 8.0 | 0.00 | 0.00 | 0.00 | 79 | 1014.5 |
| 20260510135518 | 21 | 90 | 4.8 | 11.3 | 0.00 | 0.00 | 0.00 | 77 | 1014.7 |
| 20260510134518 | 21 | 135 | 4.8 | 11.3 | 0.00 | 0.00 | 0.00 | 80 | 1014.8 |
| 20260510133518 | 21 | 90 | 3.2 | 9.7 | 0.00 | 0.00 | 0.00 | 79 | 1014.8 |
| 20260510132547 | 21 | 135 | 3.2 | 8.0 | 0.00 | 0.00 | 0.00 | 80 | 1014.9 |
| 20260510131518 | 21 | 158 | 4.8 | 11.3 | 0.00 | 0.00 | 0.00 | 80 | 1015.1 |
| 20260510130518 | 21 | 135 | 6.4 | 12.9 | 0.00 | 0.00 | 0.00 | 80 | 1015.1 |
| 20260510125518 | 21 | 135 | 4.8 | 14.5 | 0.00 | 0.00 | 0.00 | 80 | 1015.2 |
| 20260510124546 | 21 | 135 | 4.8 | 14.5 | 0.00 | 0.00 | 0.00 | 80 | 1015.4 |
| 20260510123518 | 20 | 135 | 4.8 | 14.5 | 0.00 | 0.00 | 0.00 | 80 | 1015.6 |
| 20260510122518 | 20 | 135 | 6.4 | 16.1 | 0.00 | 0.00 | 0.00 | 79 | 1015.7 |
| 20260510121538 | 20 | 135 | 8.0 | 19.3 | 0.00 | 0.03 | 0.00 | 79 | 1015.6 |
| 20260510120518 | 20 | 158 | 9.7 | 20.9 | 0.00 | 0.05 | 0.00 | 79 | 1015.7 |
| 20260510115518 | 21 | 158 | 8.0 | 20.9 | 0.00 | 0.08 | 0.00 | 77 | 1015.8 |
| 20260510114518 | 21 | 158 | 9.7 | 22.5 | 0.00 | 0.10 | 0.00 | 77 | 1015.8 |
| 20260510113518 | 21 | 158 | 6.4 | 17.7 | 0.00 | 0.15 | 0.00 | 77 | 1015.8 |
| 20260510112519 | 21 | 135 | 9.7 | 17.7 | 0.00 | 0.15 | 0.00 | 77 | 1015.8 |
| 20260510111518 | 21 | 135 | 8.0 | 14.5 | 0.00 | 0.18 | 0.00 | 73 | 1015.8 |
| 20260510110518 | 21 | 158 | 6.4 | 12.9 | 0.00 | 0.23 | 0.00 | 73 | 1015.8 |
| 20260510105519 | 21 | 135 | 3.2 | 9.7 | 0.00 | 0.25 | 0.00 | 75 | 1015.8 |
| 20260510104517 | 21 | 135 | 8.0 | 14.5 | 0.00 | 0.28 | 0.00 | 74 | 1015.8 |
| 20260510103519 | 21 | 113 | 6.4 | 12.9 | 0.00 | 0.33 | 0.00 | 74 | 1015.9 |
| 20260510102518 | 21 | 135 | 4.8 | 11.3 | 0.00 | 0.33 | 0.00 | 73 | 1015.9 |
| 20260510101518 | 22 | 135 | 1.6 | 11.3 | 0.00 | 0.41 | 0.00 | 73 | 1015.9 |
| 20260510100517 | 21 | 135 | 1.6 | 4.8 | 0.00 | 0.43 | 0.00 | 73 | 1016.0 |
| 20260510095518 | 21 | 135 | 4.8 | 8.0 | 0.00 | 0.51 | 0.00 | 74 | 1016.2 |
| 20260510094518 | 21 | 135 | 4.8 | 9.7 | 0.00 | 0.79 | 0.00 | 72 | 1016.3 |
| 20260510093538 | 20 | 158 | 4.8 | 9.7 | 0.00 | 0.81 | 0.00 | 73 | 1016.3 |
| 20260510092518 | 20 | 135 | 4.8 | 9.7 | 0.00 | 0.97 | 0.00 | 74 | 1016.3 |
| 20260510091518 | 20 | 135 | 4.8 | 12.9 | 0.00 | 1.07 | 0.00 | 75 | 1016.3 |
| 20260510090518 | 21 | 135 | 4.8 | 14.5 | 0.00 | 1.14 | 0.00 | 70 | 1016.2 |
| 20260510085538 | 21 | 135 | 3.2 | 9.7 | 0.00 | 1.42 | 0.00 | 71 | 1016.2 |
| 20260510084518 | 21 | 135 | 1.6 | 4.8 | 0.00 | 1.42 | 0.00 | 72 | 1016.3 |
| 20260510083518 | 21 | 135 | 3.2 | 6.4 | 0.00 | 1.42 | 0.00 | 71 | 1016.3 |
| 20260510082518 | 21 | 135 | 1.6 | 6.4 | 0.00 | 1.42 | 0.00 | 73 | 1016.3 |
| 20260510081518 | 20 | 135 | 1.6 | 8.0 | 0.00 | 1.42 | 0.00 | 76 | 1016.3 |
| 20260510080518 | 20 | 113 | 1.6 | 4.8 | 0.00 | 1.42 | 0.00 | 78 | 1016.4 |
| 20260510075518 | 20 | 113 | 1.6 | 3.2 | 0.00 | 1.42 | 0.00 | 78 | 1016.4 |
| 20260510074518 | 20 | 0.0 | 1.6 | 0.00 | 1.42 | 0.00 | 78 | 1016.4 | |
| 20260510073656 | 20 | 0.0 | 1.6 | 0.00 | 1.42 | 0.00 | 77 | 1016.4 | |
| 20260510072518 | 19 | 0.0 | 1.6 | 0.00 | 1.42 | 0.00 | 79 | 1016.3 | |
| 20260510071518 | 19 | 0.0 | 4.8 | 0.00 | 1.55 | 0.00 | 80 | 1016.1 | |
| 20260510070518 | 18 | 23 | 1.6 | 3.2 | 0.00 | 1.55 | 0.00 | 82 | 1016.3 |
| 20260510065518 | 17 | 0.0 | 1.6 | 0.00 | 1.55 | 0.00 | 84 | 1016.3 | |
| 20260510064518 | 17 | 270 | 3.2 | 6.4 | 0.00 | 1.55 | 0.00 | 85 | 1016.3 |
| 20260510063518 | 16 | 248 | 3.2 | 6.4 | 0.00 | 1.83 | 0.00 | 86 | 1016.3 |
| 20260510062518 | 16 | 248 | 3.2 | 6.4 | 0.00 | 1.91 | 0.00 | 87 | 1016.2 |
| 20260510061518 | 16 | 225 | 1.6 | 3.2 | 0.00 | 1.93 | 0.00 | 87 | 1016.1 |
| 20260510060518 | 16 | 248 | 1.6 | 3.2 | 0.00 | 1.93 | 0.00 | 88 | 1016.0 |
| 20260510055518 | 16 | 248 | 3.2 | 4.8 | 0.00 | 1.98 | 0.00 | 88 | 1016.0 |
| 20260510054518 | 16 | 248 | 1.6 | 4.8 | 0.00 | 2.03 | 0.00 | 88 | 1015.9 |
| 20260510053518 | 15 | 248 | 1.6 | 3.2 | 0.00 | 2.03 | 0.00 | 88 | 1015.9 |
| 20260510052518 | 15 | 270 | 1.6 | 3.2 | 0.00 | 2.03 | 0.00 | 88 | 1015.8 |
| 20260510051518 | 15 | 270 | 1.6 | 3.2 | 0.00 | 2.03 | 0.00 | 88 | 1015.7 |
| 20260510050518 | 15 | 270 | 1.6 | 3.2 | 0.00 | 2.03 | 0.00 | 88 | 1015.7 |
| 20260510045518 | 15 | 0.0 | 1.6 | 0.00 | 2.03 | 0.00 | 89 | 1015.7 | |
| 20260510044518 | 15 | 293 | 1.6 | 3.2 | 0.00 | 2.03 | 0.00 | 88 | 1015.8 |
| 20260510043518 | 15 | 0.0 | 0.0 | 0.00 | 2.03 | 0.00 | 89 | 1015.8 | |
| 20260510042518 | 15 | 0.0 | 1.6 | 0.00 | 2.03 | 0.00 | 89 | 1015.8 | |
| 20260510041518 | 15 | 0.0 | 1.6 | 0.00 | 2.03 | 0.00 | 89 | 1015.7 | |
| 20260510040518 | 15 | 270 | 1.6 | 4.8 | 0.00 | 2.03 | 0.00 | 90 | 1015.7 |
| 20260510035518 | 14 | 270 | 1.6 | 4.8 | 0.00 | 2.03 | 0.00 | 90 | 1015.7 |
| 20260510034518 | 14 | 0.0 | 1.6 | 0.00 | 2.03 | 0.00 | 91 | 1015.5 | |
| 20260510033538 | 14 | 270 | 1.6 | 3.2 | 0.00 | 2.03 | 0.00 | 91 | 1015.6 |
| 20260510032518 | 14 | 270 | 1.6 | 4.8 | 0.00 | 2.03 | 0.00 | 91 | 1015.4 |
| 20260510031538 | 14 | 248 | 4.8 | 6.4 | 0.00 | 2.03 | 0.00 | 90 | 1015.4 |
| 20260510030518 | 14 | 270 | 3.2 | 4.8 | 0.00 | 2.03 | 0.00 | 90 | 1015.3 |
| 20260510025518 | 14 | 270 | 1.6 | 3.2 | 0.00 | 2.03 | 0.00 | 90 | 1015.3 |
| 20260510024518 | 14 | 0.0 | 1.6 | 0.00 | 2.03 | 0.00 | 90 | 1015.3 | |
| 20260510023518 | 14 | 270 | 1.6 | 3.2 | 0.00 | 2.03 | 0.00 | 90 | 1015.1 |
| 20260510022518 | 14 | 270 | 4.8 | 8.0 | 0.00 | 2.03 | 0.00 | 91 | 1015.2 |
| 20260510021558 | 14 | 270 | 1.6 | 4.8 | 0.00 | 2.03 | 0.00 | 91 | 1015.2 |
| 20260510020518 | 14 | 270 | 1.6 | 4.8 | 0.00 | 2.03 | 0.00 | 91 | 1015.2 |
| 20260510015518 | 14 | 270 | 1.6 | 4.8 | 0.00 | 2.03 | 0.00 | 91 | 1015.2 |
| 20260510014518 | 14 | 270 | 3.2 | 4.8 | 0.00 | 2.03 | 0.00 | 92 | 1015.2 |
| 20260510013518 | 14 | 270 | 3.2 | 6.4 | 0.00 | 2.03 | 0.00 | 92 | 1015.3 |
| 20260510012538 | 14 | 270 | 4.8 | 6.4 | 0.00 | 2.03 | 0.00 | 92 | 1015.3 |
| 20260510011518 | 15 | 248 | 3.2 | 6.4 | 0.00 | 2.03 | 0.00 | 93 | 1015.4 |
| 20260510010518 | 15 | 248 | 1.6 | 3.2 | 0.00 | 2.03 | 0.00 | 93 | 1015.2 |
| 20260510005518 | 15 | 0.0 | 1.6 | 0.00 | 2.03 | 0.00 | 93 | 1015.3 | |
| 20260510004518 | 15 | 0.0 | 1.6 | 0.00 | 2.03 | 0.00 | 93 | 1015.5 | |
| 20260510003518 | 15 | 0.0 | 1.6 | 0.00 | 2.03 | 0.00 | 93 | 1015.7 | |
| 20260510002518 | 15 | 248 | 1.6 | 4.8 | 0.00 | 2.03 | 0.00 | 93 | 1015.7 |
| 20260510001518 | 15 | 225 | 1.6 | 3.2 | 0.00 | 2.03 | 0.00 | 93 | 1015.8 |
| 20260510000518 | 15 | 0.0 | 0.0 | 0.00 | 2.03 | 0.00 | 93 | 1016.0 | |
| 20260509235518 | 15 | 0.0 | 0.0 | 0.00 | 2.03 | 2.03 | 92 | 1016.0 | |
| 20260509234518 | 15 | 0.0 | 1.6 | 0.00 | 2.03 | 2.03 | 92 | 1016.1 | |
| 20260509233518 | 15 | 0.0 | 0.0 | 0.00 | 2.03 | 2.03 | 92 | 1016.2 | |
| 20260509232538 | 15 | 23 | 1.6 | 1.6 | 0.00 | 2.03 | 2.03 | 92 | 1016.3 |
| 20260509231539 | 15 | 0.0 | 1.6 | 0.00 | 2.03 | 2.03 | 92 | 1016.3 | |
| 20260509230518 | 15 | 0.0 | 1.6 | 0.00 | 2.03 | 2.03 | 92 | 1016.3 | |
| 20260509225518 | 16 | 0.0 | 1.6 | 0.00 | 2.03 | 2.03 | 92 | 1016.5 | |
| 20260509224518 | 16 | 0.0 | 0.0 | 0.00 | 2.03 | 2.03 | 91 | 1016.4 | |
| 20260509223538 | 16 | 0.0 | 1.6 | 0.00 | 2.03 | 2.03 | 91 | 1016.3 | |
| 20260509222518 | 16 | 0.0 | 1.6 | 0.00 | 2.03 | 2.03 | 91 | 1016.3 | |
| 20260509221518 | 16 | 0.0 | 0.0 | 0.00 | 2.03 | 2.03 | 90 | 1016.3 | |
| 20260509220539 | 16 | 0.0 | 0.0 | 0.00 | 2.03 | 2.03 | 90 | 1016.4 | |
| 20260509215518 | 16 | 0.0 | 0.0 | 0.00 | 2.03 | 2.03 | 90 | 1016.4 | |
| 20260509214518 | 16 | 0.0 | 0.0 | 0.00 | 2.03 | 2.03 | 89 | 1016.3 | |
| 20260509213518 | 16 | 0.0 | 0.0 | 0.00 | 2.03 | 2.03 | 89 | 1016.2 | |
| 20260509212518 | 16 | 0.0 | 3.2 | 0.00 | 2.03 | 2.03 | 88 | 1016.2 | |
| 20260509211518 | 17 | 0.0 | 0.0 | 0.00 | 2.03 | 2.03 | 88 | 1016.2 | |
| 20260509210518 | 17 | 23 | 1.6 | 3.2 | 0.00 | 2.03 | 2.03 | 87 | 1016.2 |
| 20260509205518 | 17 | 0.0 | 1.6 | 0.00 | 2.03 | 2.03 | 87 | 1016.3 | |
| 20260509204518 | 17 | 0.0 | 0.0 | 0.00 | 2.03 | 2.03 | 87 | 1016.1 | |
| 20260509203538 | 17 | 0.0 | 0.0 | 0.00 | 2.03 | 2.03 | 86 | 1016.1 | |
| 20260509202518 | 17 | 0.0 | 0.0 | 0.00 | 2.03 | 2.03 | 86 | 1016.1 | |
| 20260509201518 | 18 | 0.0 | 0.0 | 0.00 | 2.03 | 2.03 | 86 | 1016.0 | |
| 20260509200518 | 18 | 0.0 | 3.2 | 0.00 | 2.03 | 2.03 | 86 | 1015.9 | |
| 20260509195538 | 18 | 225 | 1.6 | 8.0 | 0.00 | 2.03 | 2.03 | 85 | 1015.7 |
| 20260509194518 | 18 | 0.0 | 6.4 | 0.00 | 2.03 | 2.03 | 84 | 1015.5 | |
| 20260509193518 | 17 | 0.0 | 0.0 | 0.00 | 2.03 | 2.03 | 84 | 1015.5 | |
| 20260509192518 | 17 | 0.0 | 0.0 | 0.00 | 2.03 | 2.03 | 83 | 1015.5 | |
| 20260509191518 | 17 | 0.0 | 0.0 | 0.00 | 2.03 | 2.03 | 83 | 1015.4 | |
| 20260509190518 | 17 | 0.0 | 1.6 | 0.00 | 2.03 | 2.03 | 83 | 1015.1 | |
| 20260509185518 | 17 | 0.0 | 0.0 | 0.00 | 2.03 | 2.03 | 82 | 1015.0 | |
| 20260509184518 | 17 | 0.0 | 0.0 | 0.00 | 2.03 | 2.03 | 82 | 1014.9 |